Burlington, NC

9:28 PM EDT on July 25, 2016 (GMT -0400)
Burlington-Alamance Regional

Weather History for KBUY - July, 2013

Change the Weather History Date:

Monday, July 1, 2013

  Actual Average Record
Temperature  
Mean Temperature 75 °F -  
Max Temperature 82 °F 88 °F 100 °F (1968)
Min Temperature 69 °F 66 °F 55 °F (1988)
Cooling Degree Days 10    
Growing Degree Days 25 (Base 50)    
Moisture  
Dew Point 70 °F    
Average Humidity 90    
Maximum Humidity 100    
Minimum Humidity 70    
Precipitation  
Precipitation 0.17 in - - ()
Sea Level Pressure  
Sea Level Pressure 29.91 in    
Wind  
Wind Speed 2 mph (South)    
Max Wind Speed 8 mph    
Max Gust Speed -    
Visibility 8 miles    
Events Rain    
Averages and records for this station are not official NWS values.
T = Trace of Precipitation, MM = Missing Value Source: NWS Daily Summary

Daily Weather History Graph

Daily Weather History Graph

Search for Another Location

Airport or City:

Trip Planner

Search our weather history database for the weather conditions in past years. The results will help you decide how hot, cold, wet, or windy it might be!

Date:

Astronomy

Jul. 01, 2013 Rise Set
Actual Time 6:04 AM EDT 8:38 PM EDT
Civil Twilight 5:34 AM EDT 9:08 PM EDT
Nautical Twilight 4:57 AM EDT 9:46 PM EDT
Astronomical Twilight 4:15 AM EDT 10:27 PM EDT
Moon 1:26 AM EDT (7/1) 2:58 PM EDT (7/1)
Length of Visible Light 15h 34m
Length of Day
14h 33m
Waning Crescent, 35% of the Moon is Illuminated
Jul 1
Waning Crescent
Jul 8
New
Jul 15
First Quarter
Jul 22
Full
Jul 29
Last Quarter

Hourly Weather History & Observations

Time (EDT) Temp. Heat Index Dew Point Humidity Pressure Visibility Wind Dir Wind Speed Gust Speed Precip Events Conditions
12:54 AM 71.1 °F - 69.1 °F 93% 29.86 in 10.0 mi Calm Calm - 0.00 in   Overcast
1:50 AM 69.8 °F - 69.8 °F 100% 29.88 in 8.0 mi Calm Calm - N/A   Overcast
1:54 AM 70.0 °F - 69.1 °F 97% 29.86 in 8.0 mi Calm Calm - N/A   Overcast
2:17 AM 69.8 °F - 69.8 °F 100% 29.87 in 8.0 mi Calm Calm - N/A   Overcast
2:54 AM 70.0 °F - 69.1 °F 97% 29.85 in 7.0 mi Calm Calm - N/A   Overcast
3:15 AM 69.8 °F - 69.8 °F 100% 29.86 in 7.0 mi Calm Calm - N/A   Overcast
3:29 AM 69.8 °F - 69.8 °F 100% 29.86 in 6.0 mi Calm Calm - N/A   Overcast
3:54 AM 70.0 °F - 69.1 °F 97% 29.84 in 7.0 mi Calm Calm - N/A   Overcast
4:04 AM 69.8 °F - 69.8 °F 100% 29.86 in 7.0 mi Calm Calm - N/A   Mostly Cloudy
4:15 AM 69.8 °F - 69.8 °F 100% 29.85 in 7.0 mi Calm Calm - N/A   Mostly Cloudy
4:22 AM 69.8 °F - 69.8 °F 100% 29.85 in 6.0 mi East 3.5 mph - N/A   Mostly Cloudy
4:37 AM 69.8 °F - 69.8 °F 100% 29.86 in 6.0 mi Calm Calm - N/A   Overcast
4:51 AM 69.8 °F - 69.8 °F 100% 29.87 in 7.0 mi Calm Calm - N/A   Overcast
4:54 AM 70.0 °F - 69.1 °F 97% 29.86 in 7.0 mi Calm Calm - N/A   Overcast
5:03 AM 69.8 °F - 69.8 °F 100% 29.87 in 7.0 mi Calm Calm - N/A   Overcast
5:54 AM 70.0 °F - 69.1 °F 97% 29.87 in 8.0 mi Calm Calm - 0.00 in Rain Light Rain
6:08 AM 69.8 °F - 69.8 °F 100% 29.90 in 8.0 mi Calm Calm - 0.00 in Rain Light Rain
6:15 AM 69.8 °F - 69.8 °F 100% 29.90 in 4.0 mi Calm Calm - 0.01 in Rain Rain
6:26 AM 69.8 °F - 69.8 °F 100% 29.91 in 2.0 mi Calm Calm - 0.04 in Rain Rain
6:33 AM 69.8 °F - 69.8 °F 100% 29.90 in 2.0 mi Calm Calm - 0.06 in Rain Rain
6:43 AM 69.8 °F - 69.8 °F 100% 29.89 in 3.0 mi Calm Calm - 0.09 in Rain Rain
6:54 AM 70.0 °F - 68.0 °F 93% 29.87 in 3.0 mi Calm Calm - 0.12 in Rain Rain
7:03 AM 69.8 °F - 68.0 °F 94% 29.90 in 2.5 mi SSW 4.6 mph - 0.02 in Rain Rain
7:11 AM 69.8 °F - 68.0 °F 94% 29.90 in 5.0 mi Calm Calm - 0.03 in Rain Light Rain
7:54 AM 70.0 °F - 69.1 °F 97% 29.89 in 9.0 mi Calm Calm - 0.04 in Rain Light Rain
8:24 AM 71.6 °F - 69.8 °F 94% 29.92 in 10.0 mi SSW 4.6 mph - 0.00 in   Scattered Clouds
8:32 AM 71.6 °F - 69.8 °F 94% 29.92 in 10.0 mi SW 4.6 mph - 0.00 in   Mostly Cloudy
8:54 AM 72.0 °F - 69.1 °F 91% 29.91 in 10.0 mi SSW 3.5 mph - 0.00 in   Mostly Cloudy
9:04 AM 71.6 °F - 69.8 °F 94% 29.93 in 10.0 mi SSW 5.8 mph - N/A   Scattered Clouds
9:16 AM 73.4 °F - 69.8 °F 88% 29.93 in 10.0 mi SSW 5.8 mph - N/A   Mostly Cloudy
9:33 AM 73.4 °F - 69.8 °F 88% 29.94 in 10.0 mi SW 4.6 mph - N/A   Mostly Cloudy
9:49 AM 73.4 °F - 69.8 °F 88% 29.94 in 10.0 mi SSW 3.5 mph - N/A   Mostly Cloudy
9:54 AM 73.9 °F - 69.1 °F 85% 29.92 in 10.0 mi South 3.5 mph - N/A   Mostly Cloudy
10:00 AM 73.4 °F - 69.8 °F 88% 29.93 in 10.0 mi Calm Calm - N/A   Overcast
10:21 AM 75.2 °F - 69.8 °F 83% 29.94 in 10.0 mi South 3.5 mph - N/A   Mostly Cloudy
10:54 AM 75.9 °F - 69.1 °F 79% 29.93 in 10.0 mi SSE 4.6 mph - N/A   Mostly Cloudy
11:54 AM 77.0 °F - 68.0 °F 74% 29.92 in 10.0 mi SSW 5.8 mph - N/A   Mostly Cloudy
12:54 PM 78.1 °F - 69.1 °F 74% 29.92 in 10.0 mi SE 5.8 mph - N/A   Overcast
1:54 PM 79.0 °F - 70.0 °F 74% 29.92 in 10.0 mi SE 6.9 mph - N/A   Overcast
2:54 PM 80.1 °F 83.6 °F 71.1 °F 74% 29.91 in 10.0 mi Calm Calm - 0.00 in   Overcast
3:27 PM 80.6 °F 83.9 °F 69.8 °F 70% 29.93 in 10.0 mi SE 5.8 mph - N/A   Mostly Cloudy
3:34 PM 78.8 °F - 71.6 °F 78% 29.93 in 10.0 mi SE 4.6 mph - N/A   Overcast
3:54 PM 81.0 °F 84.9 °F 71.1 °F 72% 29.91 in 10.0 mi SE 8.1 mph - N/A   Mostly Cloudy
4:54 PM 81.0 °F 84.9 °F 71.1 °F 72% 29.91 in 10.0 mi SSE 8.1 mph - N/A   Mostly Cloudy
5:03 PM 80.6 °F 83.9 °F 69.8 °F 70% 29.93 in 10.0 mi SSE 8.1 mph - N/A   Mostly Cloudy
5:54 PM 80.1 °F 83.2 °F 70.0 °F 71% 29.91 in 10.0 mi South 6.9 mph - N/A   Clear
6:54 PM 79.0 °F - 71.1 °F 77% 29.92 in 10.0 mi SSE 3.5 mph - N/A   Clear
7:54 PM 78.1 °F - 71.1 °F 79% 29.94 in 10.0 mi Calm Calm - N/A   Clear
8:54 PM 73.9 °F - 71.1 °F 91% 29.95 in 10.0 mi South 5.8 mph - 0.01 in Rain Light Rain
9:54 PM 73.9 °F - 71.1 °F 91% 29.98 in 10.0 mi South 6.9 mph - 0.00 in   Mostly Cloudy
10:38 PM 73.4 °F - 71.6 °F 94% 30.00 in 10.0 mi SSE 4.6 mph - N/A   Scattered Clouds
10:54 PM 73.0 °F - 71.1 °F 93% 29.97 in 10.0 mi SSE 4.6 mph - N/A   Scattered Clouds
11:22 PM 73.4 °F - 69.8 °F 88% 30.00 in 10.0 mi Calm Calm - N/A   Mostly Cloudy
11:34 PM 73.4 °F - 69.8 °F 88% 30.01 in 10.0 mi SSE 4.6 mph - N/A   Mostly Cloudy
11:54 PM 73.0 °F - 71.1 °F 93% 29.99 in 10.0 mi SSW 3.5 mph - N/A   Overcast